TheGetRank SiteMap Page 2885
Home 2835 2836 2837 2838 2839 2840 2841 2842 2843 2844 2845 2846 2847 2848 2849 2850 2851 2852 2853 2854 2855 2856 2857 2858 2859 2860 2861 2862 2863 2864 2865 2866 2867 2868 2869 2870 2871 2872 2873 2874 2875 2876 2877 2878 2879 2880 2881 2882 2883 2884 2885 2886 2887 2888 2889 2890 2891 2892 2893 2894 2895 2896 2897 2898 2899 2900 2901 2902 2903 2904 2905 2906 2907 2908 2909 2910 2911 2912 2913 2914 2915 2916 2917 2918 2919 2920 2921 2922 2923 2924 2925 2926 2927 2928 2929 2930 2931 2932 2933 2934 2935
S.NO. Website Pagerank Alexa Rank Last Updated
2884000 remsek.com 0 No Rank 2011-09-29 06:08:07
2884001 innaworld.net 3 24804644 2011-09-29 06:08:07
2884002 raulcarlson.com 0 No Rank 2011-09-29 06:08:10
2884003 tu.web-impact.nl 0 1946967 2011-09-29 06:08:12
2884004 ratfinkgarage.com 3 17240117 2011-09-29 06:08:12
2884005 rasta-wear.com 1 No Rank 2011-09-29 06:08:15
2884006 rasmussenfarms.com 4 5853186 2011-09-29 06:08:20
2884007 rapidrenu.com 2 No Rank 2011-09-29 06:08:24
2884008 fsbstjoseph.com 4 No Rank 2011-09-29 06:08:26
2884009 rapidprints.com 0 No Rank 2011-09-29 06:08:27
2884010 ranjinitextiles.net 0 No Rank 2011-09-29 06:08:30
2884011 rangerfirearminstruction.com 1 No Rank 2011-09-29 06:08:34
2884012 rangerbrigade.com 0 No Rank 2011-09-29 06:08:39
2884013 ranchmartine.com 1 No Rank 2011-09-29 06:08:41
2884014 ramseypilates.com 0 No Rank 2011-09-29 06:08:42
2884015 ramrajhouse.com 0 No Rank 2011-09-29 06:08:47
2884016 lc.hu 4 519541 2011-09-29 06:08:52
2884017 ramog.com 0 11084902 2011-09-29 06:08:54
2884018 ramallo.gov.ar 4 16491870 2011-09-29 06:08:56
2884019 ramadaparkcentral.com 2 No Rank 2011-09-29 06:08:59
2884020 rally.inews.hu 3 393447 2011-09-29 06:09:02
2884021 rakel.dk 0 No Rank 2011-09-29 06:09:04
2884022 agua.ro 0 1761679 2011-09-29 06:09:08
2884023 store1.gastroenterologyliverandnutritionpdiatrics.wordpress.com 0 No Rank 2011-09-29 06:09:08
2884024 admk.in 0 6034858 2011-09-29 06:09:08
2884025 rainingphotos.com 2 No Rank 2011-09-29 06:09:09
2884026 advancedhairinstitute.com 1 12376875 2011-09-29 06:09:11
2884027 tali.gr 0 No Rank 2011-09-29 06:09:12
2884028 rainesfamilyfoundation.org 0 No Rank 2011-09-29 06:09:13
2884029 rainbowcomputer.net 1 9780916 2011-09-29 06:09:13
2884030 mysteryquest.com 0 19811891 2011-09-29 06:09:15
2884031 rahasiakuat.com 4 4874019 2011-09-29 06:09:18
2884032 dailydata.info 0 No Rank 2011-09-29 06:09:18
2884033 raf-112-squadron.org 2 8565681 2011-09-29 06:09:19
2884034 d-na.gr 3 869957 2011-09-29 06:09:20
2884035 radtkefarms.com 0 No Rank 2011-09-29 06:09:25
2884036 syll.fr 3 1428005 2011-09-29 06:09:26
2884037 radrescue.org 3 12799143 2011-09-29 06:09:28
2884038 wwwzl.b2b.youboy.com 0 696 2011-09-29 06:09:30
2884039 cred.be 7 6332442 2011-09-29 06:09:31
2884040 books.insurancehelpforyou.blogspot.com.pk 0 18701424 2011-09-29 06:09:31
2884041 radwanskie.net 3 5238623 2011-09-29 06:09:31
2884042 mher.de 0 16653666 2011-09-29 06:09:32
2884043 jz7.net 0 16942562 2011-09-29 06:09:34
2884044 radioworks.jp 2 No Rank 2011-09-29 06:09:34
2884045 radiospacecoast.com 2 No Rank 2011-09-29 06:09:35
2884046 unan.eu 0 No Rank 2011-09-29 06:09:39
2884047 thrillermag.com 2 6421749 2011-09-29 06:09:39
2884048 radioitaliapittsburgh.com 3 No Rank 2011-09-29 06:09:39
2884049 radioe99.com.ar 1 No Rank 2011-09-29 06:09:41
2884050 bespokeglazingsystems.co.uk 0 5911097 2011-09-29 06:09:46
2884051 radicalsound.nl 3 No Rank 2011-09-29 06:09:46
2884052 metalindobiz.itrademarket.com 0 39978 2011-09-29 06:09:47
2884053 radio86.fi 6 No Rank 2011-09-29 06:09:48
2884054 racingperformanceministries.com 2 No Rank 2011-09-29 06:09:54
2884055 racela.com 3 3523183 2011-09-29 06:09:57
2884056 r-creation.com 0 No Rank 2011-09-29 06:09:59
2884057 inventureenterprises.com 3 No Rank 2011-09-29 06:09:59
2884058 krooztune.com 2 7025489 2011-09-29 06:09:59
2884059 quitovet.net 1 No Rank 2011-09-29 06:10:00
2884060 colorofmoodring.wordpress.com 0 No Rank 2011-09-29 06:10:07
2884061 quintalasacacias.com 0 2428404 2011-09-29 06:10:07
2884062 comtrolauto.netfirms.com 0 2313 2011-09-29 06:10:07
2884063 quicktwitchathletic.com 0 No Rank 2011-09-29 06:10:10
2884064 dwmmag.com 4 2157401 2011-09-29 06:10:12
2884065 quirkytravel.com 3 2810455 2011-09-29 06:10:13
2884066 quicklearncomputertraining.com 2 No Rank 2011-09-29 06:10:14
2884067 thecrazehouse.com 0 No Rank 2011-09-29 06:10:15
2884068 questions.astronomy.com.ph 2 No Rank 2011-09-29 06:10:17
2884069 parkridgepenguins.com 3 No Rank 2011-09-29 06:10:17
2884070 queenofthewinkla.com 1 16672262 2011-09-29 06:10:19
2884071 quebecon.ca 2 No Rank 2011-09-29 06:10:23
2884072 queacct.com 2 No Rank 2011-09-29 06:10:24
2884073 quartermidgetbumpers.com 0 25887012 2011-09-29 06:10:29
2884074 quartzhillwrestling.com 0 No Rank 2011-09-29 06:10:29
2884075 cavmen.home.gastroenterologyliverandnutritionpdiatrics.wordpress.com 0 No Rank 2011-09-29 06:10:33
2884076 higood.com 0 No Rank 2011-09-29 06:10:38
2884077 qualitech.su 1 No Rank 2011-09-29 06:10:39
2884078 joshmccarter.xanga.com 0 2752 2011-09-29 06:10:40
2884079 quailtech.com 1 16664908 2011-09-29 06:10:40
2884080 pxyuan.com 0 No Rank 2011-09-29 06:10:40
2884081 quailridgefarmshoa.com 0 No Rank 2011-09-29 06:10:43
2884082 qm-europe.com 0 No Rank 2011-09-29 06:10:44
2884083 qluu.de.vu 2 No Rank 2011-09-29 06:10:48
2884084 qinglankoubou.com 1 No Rank 2011-09-29 06:10:49
2884085 qginger.com 4 2768997 2011-09-29 06:10:53
2884086 qetceara.com 0 No Rank 2011-09-29 06:10:53
2884087 ronaldweinland.info 1 5507131 2011-09-29 06:10:56
2884088 outbuildings.ca 2 No Rank 2011-09-29 06:10:59
2884089 pweld.com 2 No Rank 2011-09-29 06:11:03
2884090 pvi.be 1 No Rank 2011-09-29 06:11:04
2884091 cliftonskatezone.freeservers.com 2 3432 2011-09-29 06:11:06
2884092 partyservice-franz.de 1 No Rank 2011-09-29 06:11:09
2884093 puutuli.com 0 No Rank 2011-09-29 06:11:10
2884094 pushstreamplus.com 0 No Rank 2011-09-29 06:11:15
2884095 purradoo.com 0 No Rank 2011-09-29 06:11:17
2884096 purposedrivenprofits.com 0 No Rank 2011-09-29 06:11:20
2884097 pureterror.com 2 7550986 2011-09-29 06:11:21
2884098 creditexpertkc.com 0 9034064 2011-09-29 06:11:22
2884099 pureguard.net 5 No Rank 2011-09-29 06:11:26
2884100 pureprolb.com 1 8971856 2011-09-29 06:11:31
2884101 pummill.com 2 No Rank 2011-09-29 06:11:33
2884102 pugetsound.edu 6 292691 2011-09-29 06:11:41
2884103 public.carnet.hr 6 121675 2011-09-29 06:11:43
2884104 ptandmassage.com 0 No Rank 2011-09-29 06:11:47
2884105 pub-pasim.or.id 0 23956018 2011-09-29 06:11:51
2884106 psychosyndrome.ru 0 11947462 2011-09-29 06:11:52
2884107 hshawaii.scout.com 4 1848 2011-09-29 06:11:52
2884108 psychink.com 4 6083964 2011-09-29 06:11:55
2884109 psychologie-online.net 0 No Rank 2011-09-29 06:11:56
2884110 psychics.all.at 0 36315 2011-09-29 06:11:59
2884111 pstcpower.com 1 No Rank 2011-09-29 06:12:00
2884112 psmodhome.com 3 4201102 2011-09-29 06:12:06
2884113 psplegal.com 1 No Rank 2011-09-29 06:12:07
2884114 ps-immo.hr 4 16737789 2011-09-29 06:12:11
2884115 przedszkole178.krakow.pl 2 No Rank 2011-09-29 06:12:15
2884116 rolandobaker410.xanga.com 0 2752 2011-09-29 06:12:19
2884117 siip.blogdetik.com 2 643132 2011-09-29 06:12:19
2884118 u.makersofmemories.org 0 3271505 2011-09-29 06:12:19
2884119 provolawncare.com 1 4879738 2011-09-29 06:12:21
2884120 providenciaespasion.com 2 2014850 2011-09-29 06:12:21
2884121 provence-renthome.com 1 No Rank 2011-09-29 06:12:24
2884122 proteinpulver.info 0 12017632 2011-09-29 06:12:27
2884123 proteines.be 2 3695184 2011-09-29 06:12:33
2884124 propelcap.com 0 No Rank 2011-09-29 06:12:35
2884125 propa-ganda.com 0 No Rank 2011-09-29 06:12:37
2884126 promoclub.eu 3 No Rank 2011-09-29 06:12:39
2884127 promelectrical.ru 0 6931566 2011-09-29 06:12:43
2884128 promdressesuk.com 1 15293078 2011-09-29 06:12:45
2884129 projectuday.nic.in 3 No Rank 2011-09-29 06:12:52
2884130 prolegallnc.com 2 18097865 2011-09-29 06:12:54
2884131 projectpeanut.com 0 22705893 2011-09-29 06:12:56
2884132 progrolandscaping.com 0 No Rank 2011-09-29 06:12:59
2884133 visih.com.cn 0 1143161 2011-09-29 06:13:03
2884134 progressivepodiatryny.com 2 2666521 2011-09-29 06:13:04
2884135 progresspaving.com 0 No Rank 2011-09-29 06:13:06
2884136 specialcoupon.blogspot.com 0 No Rank 2011-09-29 06:13:08
2884137 progressiveparenting.info 1 960157 2011-09-29 06:13:10
2884138 house.makersofmemories.org 0 3271505 2011-09-29 06:13:12
2884139 go2.gastroenterologyliverandnutritionpdiatrics.wordpress.com 0 No Rank 2011-09-29 06:13:13
2884140 profilink.net 2 3810394 2011-09-29 06:13:14
2884141 profesyonelses.org 0 No Rank 2011-09-29 06:13:15
2884142 proeximp.com.pl 2 6726988 2011-09-29 06:13:20
2884143 proecozielona.pl 0 9604118 2011-09-29 06:13:25
2884144 proenergo.ru 2 7513319 2011-09-29 06:13:27
2884145 sinostrategies.com 2 No Rank 2011-09-29 06:13:31
2884146 prodluzovani-vlasu-praha.cz 4 6067172 2011-09-29 06:13:32
2884147 procomb.se 2 4724259 2011-09-29 06:13:33
2884148 probelgroup.com 0 No Rank 2011-09-29 06:13:37
2884149 pro-idee.com 0 109834 2011-09-29 06:13:41
2884150 pro-banz.com 0 No Rank 2011-09-29 06:13:43
2884151 printableflashcards.net 3 4539563 2011-09-29 06:13:47
2884152 privatewealth.net 0 No Rank 2011-09-29 06:13:50
2884153 princetoninteriorsinc.com 0 No Rank 2011-09-29 06:13:53
2884154 abestvalueinspringfieldma.com 0 11861733 2011-09-29 06:13:54
2884155 princesspartynj.com 1 No Rank 2011-09-29 06:14:04
2884156 coralreefcapital.com 1 16943114 2011-09-29 06:14:07
2884157 priluki.at.ua 1 183 2011-09-29 06:14:10
2884158 u.web-impact.nl 0 1946967 2011-09-29 06:14:16
2884159 priestrivertimes.com 4 19784816 2011-09-29 06:14:19
2884160 alexisriggs7187.livejournal.com 0 87 2011-09-29 06:14:23
2884161 prideseeds.com 5 No Rank 2011-09-29 06:14:24
2884162 smokestikintl.net 0 No Rank 2011-09-29 06:14:25
2884163 princess-nala.de.vu 1 9945888 2011-09-29 06:14:27
2884164 prezioso.tel 0 No Rank 2011-09-29 06:14:28
2884165 prestigematch.com 2 No Rank 2011-09-29 06:14:31
2884166 pressureproducts.com 3 8199997 2011-09-29 06:14:32
2884167 pressivemusic.com 1 14373785 2011-09-29 06:14:36
2884168 preparationimpotsmontreal.com 0 No Rank 2011-09-29 06:14:43
2884169 preservationlongview.com 3 No Rank 2011-09-29 06:14:44
2884170 alangreene.makersofmemories.org 0 3271505 2011-09-29 06:14:48
2884171 premiumqualitybeef.com 1 No Rank 2011-09-29 06:14:48
2884172 premiumshoppingoutlet.com 0 No Rank 2011-09-29 06:14:50
2884173 premierrubberindustries.com 0 No Rank 2011-09-29 06:14:51
2884174 cooforum.org 2 3931276 2011-09-29 06:14:57
2884175 phillipsonsite.com 2 No Rank 2011-09-29 06:14:58
2884176 thesh.net 0 16051256 2011-09-29 06:15:00
2884177 loveunion.org 0 No Rank 2011-09-29 06:15:02
2884178 precisionplanters.com 2 No Rank 2011-09-29 06:15:03
2884179 preferredhomecareproviders.com 0 No Rank 2011-09-29 06:15:07
2884180 house.web-impact.nl 0 1946967 2011-09-29 06:15:09
2884181 preachersandpornstars.com 1 No Rank 2011-09-29 06:15:12
2884182 prakorn.com 0 19533406 2011-09-29 06:15:15
2884183 praktijkbenji.nl 0 No Rank 2011-09-29 06:15:16
2884184 prakashtransport.com 0 No Rank 2011-09-29 06:15:19
2884185 practisearch.com 3 No Rank 2011-09-29 06:15:21
2884186 pozzi.jeanpierre.club.fr 0 165648 2011-09-29 06:15:32
2884187 pozasbros.com 0 No Rank 2011-09-29 06:15:37
2884188 sonore-de-toot.com 2 No Rank 2011-09-29 06:15:37
2884189 pozanti.gov.tr 4 17600452 2011-09-29 06:15:41
2884190 powerupfitness.net 0 No Rank 2011-09-29 06:15:43
2884191 powersbenefits.com 0 No Rank 2011-09-29 06:15:46
2884192 mileonejobs.com 3 6917069 2011-09-29 06:15:47
2884193 powermarinecentre.com 2 20183143 2011-09-29 06:15:47
2884194 powerledlighting.com 0 23401692 2011-09-29 06:15:50
2884195 powerhouseappliances.com 1 14111009 2011-09-29 06:15:57
2884196 poweringpeople.org 2 No Rank 2011-09-29 06:15:58
2884197 powerdevelopmentinc.com 1 2985356 2011-09-29 06:16:03
2884198 poushe.com 2 No Rank 2011-09-29 06:16:07
2884199 potolok78.ru 1 10556400 2011-09-29 06:16:09
2884200 pot-com.com 3 No Rank 2011-09-29 06:16:12
2884201 positivesharedparenting.org 3 15576523 2011-09-29 06:16:17
2884202 posey-images.com 2 No Rank 2011-09-29 06:16:21
2884203 positive-parenting-principles.com 1 No Rank 2011-09-29 06:16:22
2884204 poseidon-kokkari.gr 2 12867538 2011-09-29 06:16:27
2884205 portsmouthscuba.com 2 20420174 2011-09-29 06:16:28
2884206 portersfederalhill.com 3 9126232 2011-09-29 06:16:32
2884207 portcredithomes.ca 1 No Rank 2011-09-29 06:16:35
2884208 portcharlottemoose.org 0 No Rank 2011-09-29 06:16:39
2884209 intimatedeath.dealshopcenter.com 0 No Rank 2011-09-29 06:16:41
2884210 portacabin-india.com 0 No Rank 2011-09-29 06:16:44
2884211 poppypetal.gallery.free.fr 2 207 2011-09-29 06:16:45
2884212 poolprofessionals.com 3 8056924 2011-09-29 06:16:51
2884213 alangreene.web-impact.nl 0 1946967 2011-09-29 06:16:54
2884214 bennydodson1229.insanejournal.com 0 5024 2011-09-29 06:16:55
2884215 poolsidebookstore.com 0 No Rank 2011-09-29 06:16:56
2884216 pony-espresso.com 0 36899 2011-09-29 06:17:13
2884217 pomphome.com 3 14031032 2011-09-29 06:17:21
2884218 polypus.ca 2 11217669 2011-09-29 06:17:26
2884219 polytanksales.com 0 No Rank 2011-09-29 06:17:38
2884220 polyfoil.co.id 0 27062717 2011-09-29 06:17:43
2884221 polovin.com 2 No Rank 2011-09-29 06:17:43
2884222 polishsmile.com 3 7404241 2011-09-29 06:17:51
2884223 polishdirectory.biz 2 No Rank 2011-09-29 06:17:55
2884224 goldstartextads.com 0 1186589 2011-09-29 06:17:57
2884225 polerowanie-auta.com.pl 0 No Rank 2011-09-29 06:17:57
2884226 poledanceireland.com 2 9918783 2011-09-29 06:17:59
2884227 billigeversicherung.eu 0 No Rank 2011-09-29 06:18:02
2884228 poisondave.com 0 No Rank 2011-09-29 06:18:07
2884229 pokerguru365.com 2 9242333 2011-09-29 06:18:07
2884230 pointdechute.com 0 No Rank 2011-09-29 06:18:12
2884231 vilatulip.md 2 18362808 2011-09-29 06:18:14
2884232 podpis.dobry-antywirus.pl 0 19839965 2011-09-29 06:18:18
2884233 podolsze.pl 1 No Rank 2011-09-29 06:18:25
2884234 pocketpcgear.com 3 No Rank 2011-09-29 06:18:28
2884235 pocobeads.com 2 15071328 2011-09-29 06:18:28
2884236 pocketbar.co.in 1 3401353 2011-09-29 06:18:32
2884237 plymouthsegwayrental.com 2 No Rank 2011-09-29 06:18:39
2884238 pmts.ca 0 19384828 2011-09-29 06:18:40
2884239 bbs.makersofmemories.org 0 3271505 2011-09-29 06:18:45
2884240 plussizecatalogs.net 0 No Rank 2011-09-29 06:18:45
2884241 plusfactor-e.com 2 No Rank 2011-09-29 06:18:45
2884242 huapansh.com 0 No Rank 2011-09-29 06:18:52
2884243 plotncr.com 0 No Rank 2011-09-29 06:18:53
2884244 ploks.com 1 13167586 2011-09-29 06:18:53
2884245 plentydogs.com 2 9531904 2011-09-29 06:18:57
2884246 weather.makersofmemories.org 0 3271505 2011-09-29 06:18:58
2884247 plejllc.com 0 No Rank 2011-09-29 06:19:01
2884248 pleasantrundog.com 0 22593481 2011-09-29 06:19:02
2884249 playyourpart.ca 5 No Rank 2011-09-29 06:19:09
2884250 plazaautotransport.com 2 12584018 2011-09-29 06:19:09
2884251 commission-central.makersofmemories.org 0 3271505 2011-09-29 06:19:11
2884252 playwow.eu 1 18150832 2011-09-29 06:19:15
2884253 bennydodson1229071.webs.com 0 No Rank 2011-09-29 06:19:16
2884254 women.makersofmemories.org 0 3271505 2011-09-29 06:19:16
2884255 plattecanyonll.com 1 No Rank 2011-09-29 06:19:19
2884256 platinumplant.com 0 No Rank 2011-09-29 06:19:19
2884257 plasticprocessorsinc.com 0 No Rank 2011-09-29 06:19:24
2884258 platangaarden.dk 3 No Rank 2011-09-29 06:19:27
2884259 plasmacute.com 1 25191302 2011-09-29 06:19:31
2884260 planocard.com 0 No Rank 2011-09-29 06:19:34
2884261 planete-senegal.com 4 840566 2011-09-29 06:19:36
2884262 planet-esthetic.net 0 No Rank 2011-09-29 06:19:40
2884263 planchers-mercier.com 5 6386687 2011-09-29 06:19:41
2884264 planbpianos.com 0 16153516 2011-09-29 06:19:45
2884265 plainollawncare.com 0 No Rank 2011-09-29 06:19:45
2884266 pkdrums.net 1 No Rank 2011-09-29 06:19:50
2884267 pkpgms.ru 1 No Rank 2011-09-29 06:19:50
2884268 pizzerie.olsztyn.firmy-24h.pl 0 3548682 2011-09-29 06:19:56
2884269 pizzaschmizza.net 0 No Rank 2011-09-29 06:20:00
2884270 3dsamsungtv.50inch3dtv.info 0 4417408 2011-09-29 06:20:03
2884271 pixelgraphixdesign.com 4 3708871 2011-09-29 06:20:06
2884272 house.uppsen.com 0 14235498 2011-09-29 06:20:07
2884273 pixelado.org 0 No Rank 2011-09-29 06:20:09
2884274 pivnaya01.ru 3 4752475 2011-09-29 06:20:11
2884275 pittsburghskydive.com 0 No Rank 2011-09-29 06:20:13
2884276 pistolcoach.com 2 No Rank 2011-09-29 06:20:18
2884277 pitchers.se 4 7347520 2011-09-29 06:20:18
2884278 piratescoveapts.com 3 No Rank 2011-09-29 06:20:22
2884279 insurancehelpforyou.blogspot.com 0 No Rank 2011-09-29 06:20:22
2884280 piquadro.ru 1 3770548 2011-09-29 06:20:24
2884281 bu-hangon.blogspot.com 0 No Rank 2011-09-29 06:20:27
2884282 pinthetailonmichelle.com 0 No Rank 2011-09-29 06:20:28
2884283 pioneertelecomservices.com 2 22095663 2011-09-29 06:20:30
2884284 pinnacletickets.com 0 No Rank 2011-09-29 06:20:33
2884285 pinnaclemystique.com 0 No Rank 2011-09-29 06:20:36
2884286 pinkyst.net 1 No Rank 2011-09-29 06:20:38
2884287 pinionteam.com 4 No Rank 2011-09-29 06:20:45
2884288 urgentcarehenderson.com 0 No Rank 2011-09-29 06:20:46
2884289 pinebarrensfestival.org 3 14129339 2011-09-29 06:20:49
2884290 bbs.web-impact.nl 0 1946967 2011-09-29 06:20:53
2884291 pina.hr 3 4164402 2011-09-29 06:20:54
2884292 pilzen.tel 1 No Rank 2011-09-29 06:20:57
2884293 pilotpainting.com 1 8375499 2011-09-29 06:21:01
2884294 pilepoele.fr 2 No Rank 2011-09-29 06:21:07
2884295 weather.web-impact.nl 0 1946967 2011-09-29 06:21:09
2884296 pilatespersonaltraining.com 1 15765743 2011-09-29 06:21:09
2884297 point.makersofmemories.org 0 3271505 2011-09-29 06:21:10
2884298 toronto.en.makersofmemories.org 0 3271505 2011-09-29 06:21:11
2884299 pilarportas.pt 2 No Rank 2011-09-29 06:21:12
2884300 piictu.com 5 164524 2011-09-29 06:21:14
2884301 piercingneedles.net 0 21381426 2011-09-29 06:21:18
2884302 piercing-onlineshop.com 2 No Rank 2011-09-29 06:21:23
2884303 commission-central.web-impact.nl 0 1946967 2011-09-29 06:21:23
2884304 picturerocksfire.org 3 18460971 2011-09-29 06:21:26
2884305 picstropical.com 2 1789919 2011-09-29 06:21:27
2884306 piconecues.com 2 17415910 2011-09-29 06:21:29
2884307 women.web-impact.nl 0 1946967 2011-09-29 06:21:30
2884308 picnicbasketonline.com 0 11929915 2011-09-29 06:21:31
2884309 mensrings111.wordpress.com 0 No Rank 2011-09-29 06:21:33
2884310 picforever.com 1 10666985 2011-09-29 06:21:37
2884311 pic-timber.com 0 No Rank 2011-09-29 06:21:41
2884312 pianoprofessor.org 0 No Rank 2011-09-29 06:21:43
2884313 parentdmd.org 6 No Rank 2011-09-29 06:21:45
2884314 pianochristmasmusic.com 0 No Rank 2011-09-29 06:21:46
2884315 physicianscouncil.org 3 14545465 2011-09-29 06:21:49
2884316 phpsoftware.info 2 1647069 2011-09-29 06:21:50
2884317 photospapillons.com 3 2941235 2011-09-29 06:21:53
2884318 photos-by-brian.com 0 No Rank 2011-09-29 06:21:58
2884319 photosbysdg.com 0 No Rank 2011-09-29 06:21:59
2884320 photographybymonet.com 2 No Rank 2011-09-29 06:22:06
2884321 photographsbyladonna.com 0 No Rank 2011-09-29 06:22:07
2884322 photo-motion.com 0 No Rank 2011-09-29 06:22:11
2884323 phonoethics.com 4 10070120 2011-09-29 06:22:14
2884324 phonezoom.net 1 9421250 2011-09-29 06:22:18
2884325 phonenews.com.pl 0 7625221 2011-09-29 06:22:23
2884326 phoenixfacelifts.com 0 No Rank 2011-09-29 06:22:26
2884327 phonecallmall.com 3 1378744 2011-09-29 06:22:27
2884328 phoenixcommunitycollege.net 0 No Rank 2011-09-29 06:22:31
2884329 philquest.com 0 26916360 2011-09-29 06:22:32
2884330 metalhertzfm.com 1 No Rank 2011-09-29 06:22:34
2884331 phillyhash.com 3 15147067 2011-09-29 06:22:37
2884332 phillyyardyvibes.com 2 6088152 2011-09-29 06:22:39
2884333 phillipsres.com 2 No Rank 2011-09-29 06:22:40
2884334 phillip-skraba.com 1 17633331 2011-09-29 06:22:43
2884335 philipkramer.com 2 No Rank 2011-09-29 06:22:47
2884336 pharma-academy.com 4 No Rank 2011-09-29 06:22:49
2884337 pharm-sol.com 0 No Rank 2011-09-29 06:22:52
2884338 pghardy.net 3 18704686 2011-09-29 06:22:53
2884339 pferdt.com 0 No Rank 2011-09-29 06:22:58
2884340 petuschagardenlodge.com 0 17667464 2011-09-29 06:23:00
2884341 petersoncustomcabinetry.com 0 No Rank 2011-09-29 06:23:09
2884342 peterbialecki.com 1 No Rank 2011-09-29 06:23:11
2884343 peter-raos.com 3 18936515 2011-09-29 06:23:14
2884344 petencare.com 1 No Rank 2011-09-29 06:23:17
2884345 petalsstemsandleaves.com 3 24087550 2011-09-29 06:23:19
2884346 games.makersofmemories.org 0 3271505 2011-09-29 06:23:20
2884347 pessoart.com 1 No Rank 2011-09-29 06:23:22
2884348 persemestari.com 2 8574315 2011-09-29 06:23:25
2884349 perraproperties.com 2 No Rank 2011-09-29 06:23:26
2884350 perowestman.se 3 No Rank 2011-09-29 06:23:31
2884351 point.web-impact.nl 0 1946967 2011-09-29 06:23:31
2884352 toronto.en.web-impact.nl 0 1946967 2011-09-29 06:23:33
2884353 adarchitects.co.uk 2 7886557 2011-09-29 06:23:39
2884354 performateam.eu 3 No Rank 2011-09-29 06:23:41
2884355 buyersstarthere.blogspot.com 0 No Rank 2011-09-29 06:23:41
2884356 perille-diamant.com 2 22367252 2011-09-29 06:23:41
2884357 bennydodson1229.bravejournal.com 0 13316 2011-09-29 06:23:44
2884358 performancehorsetechnology.com 0 No Rank 2011-09-29 06:23:46
2884359 performancefordusedcars.com 0 No Rank 2011-09-29 06:23:52
2884360 perenoel.biz 0 No Rank 2011-09-29 06:23:56
2884361 percolatorcoffeepot.info 0 No Rank 2011-09-29 06:23:57
2884362 perchlorateinformationbureau.org 2 No Rank 2011-09-29 06:24:01
2884363 perbrolund.com 2 No Rank 2011-09-29 06:24:02
2884364 pepekswiata.org 1 No Rank 2011-09-29 06:24:08
2884365 pennywinspur.com 2 No Rank 2011-09-29 06:24:14
2884366 pennysemrau.com 0 No Rank 2011-09-29 06:24:16
2884367 peninsulas.se 0 No Rank 2011-09-29 06:24:22
2884368 penny-call.mobi 0 No Rank 2011-09-29 06:24:22
2884369 troyfirst.info 1 No Rank 2011-09-29 06:24:25
2884370 penchalalink.com 0 No Rank 2011-09-29 06:24:27
2884371 peniches.eu 1 13138705 2011-09-29 06:24:27
2884372 pelion-platanidia.gr 0 No Rank 2011-09-29 06:24:32
2884373 peggydunne.com 0 No Rank 2011-09-29 06:24:37
2884374 peixinho.com 0 13007865 2011-09-29 06:24:38
2884375 peerauthority.com 0 No Rank 2011-09-29 06:24:42
2884376 peelracingfestival.org 3 26002753 2011-09-29 06:24:44
2884377 mb.makersofmemories.org 0 3271505 2011-09-29 06:24:48
2884378 pedalpowerbikeshop.com 3 20925446 2011-09-29 06:24:49
2884379 peasandcarrotsmediagroup.com 0 No Rank 2011-09-29 06:24:55
2884380 pearcejobs.com 1 20043980 2011-09-29 06:25:00
2884381 indexed.makersofmemories.org 0 3271505 2011-09-29 06:25:04
2884382 peakrealestateandlending.com 0 20268516 2011-09-29 06:25:05
2884383 peaceloveandlemonade.com 2 No Rank 2011-09-29 06:25:07
2884384 peaceeconomyproject.org 4 No Rank 2011-09-29 06:25:11
2884385 fortlax.se 2 11034181 2011-09-29 06:25:19
2884386 wow.uppsen.com 0 14235498 2011-09-29 06:25:23
2884387 faithandeverydayleadership.org 0 No Rank 2011-09-29 06:25:35
2884388 games.web-impact.nl 0 1946967 2011-09-29 06:25:36
2884389 shinkjet.net 0 11089353 2011-09-29 06:25:39
2884390 muscle-sculpting-surgery.surgerythailand.com 1 18509364 2011-09-29 06:25:42
2884391 animaldst.esmartweb.com 4 545792 2011-09-29 06:25:55
2884392 forums.makersofmemories.org 0 3271505 2011-09-29 06:25:55
2884393 tu.gastroenterologyliverandnutritionpdiatrics.wordpress.com 0 No Rank 2011-09-29 06:26:02
2884394 store.wildboarproducts.com 1 3414310 2011-09-29 06:26:06
2884395 aaanursingcare.com 1 No Rank 2011-09-29 06:26:49
2884396 mb.web-impact.nl 0 1946967 2011-09-29 06:27:00
2884397 solacepower.com 4 8333857 2011-09-29 06:27:03
2884398 indexed.web-impact.nl 0 1946967 2011-09-29 06:27:16
2884399 famouscelebrityquotes.com 0 No Rank 2011-09-29 06:27:29
2884400 id2.uppsen.com 0 14235498 2011-09-29 06:28:01
2884401 skxa.com 0 No Rank 2011-09-29 06:28:07
2884402 lynnterry24.insanejournal.com 0 5024 2011-09-29 06:28:10
2884403 forums.web-impact.nl 0 1946967 2011-09-29 06:28:16
2884404 qd2s.net 0 No Rank 2011-09-29 06:28:23
2884405 fukuoka-hellowork.com 0 No Rank 2011-09-29 06:28:41
2884406 point.gastroenterologyliverandnutritionpdiatrics.wordpress.com 0 No Rank 2011-09-29 06:28:45
2884407 benitachell.eu 0 No Rank 2011-09-29 06:28:54
2884408 alonzofoster821.imagekind.com 0 16991 2011-09-29 06:29:43
2884409 bull-bear.de 3 1938100 2011-09-29 06:30:13
2884410 lynnterry24603.webs.com 0 No Rank 2011-09-29 06:30:13
2884411 projectbp.com 2 No Rank 2011-09-29 06:30:23
2884412 82fk.com 0 No Rank 2011-09-29 06:30:40
2884413 4769.com 0 5531918 2011-09-29 06:30:55
2884414 113u.net 0 3001991 2011-09-29 06:31:07
2884415 easilyubuy.com 0 No Rank 2011-09-29 06:31:23
2884416 toce.acm.org 6 7481 2011-09-29 06:31:31
2884417 pdmdcenter.com 2 No Rank 2011-09-29 06:31:48
2884418 blaythorne.co.uk 2 10602656 2011-09-29 06:31:51
2884419 pcmhalumni.com 0 No Rank 2011-09-29 06:31:53
2884420 vintagekitchenaid.com 0 18136938 2011-09-29 06:31:55
2884421 pdfcreatorsystem.com 0 No Rank 2011-09-29 06:31:55
2884422 pcandweb.com 3 128495 2011-09-29 06:31:59
2884423 fastestwaytogetridofapimple.net 0 No Rank 2011-09-29 06:32:04
2884424 pbhh.org 6 14855672 2011-09-29 06:32:06
2884425 paylesscontactlenses.com 3 9594757 2011-09-29 06:32:10
2884426 mywaytothenations.com 1 796217 2011-09-29 06:32:13
2884427 pax-republica.net 1 2667861 2011-09-29 06:32:15
2884428 pavillondelemyrne.com 2 15763788 2011-09-29 06:32:16
2884429 pavelkaart.com 0 No Rank 2011-09-29 06:32:18
2884430 paulwolven.com 1 No Rank 2011-09-29 06:32:19
2884431 paullytton.com 1 No Rank 2011-09-29 06:32:25
2884432 marketingtructuyen.org 0 26010121 2011-09-29 06:32:26
2884433 lynnterry24.xanga.com 0 2752 2011-09-29 06:32:31
2884434 paul-kwiatkowski.com 2 6672628 2011-09-29 06:32:31
2884435 patwreck.com 2 960739 2011-09-29 06:32:34
2884436 patrickgrogan.com 1 22894476 2011-09-29 06:32:40
2884437 patricklafferty.com 1 No Rank 2011-09-29 06:32:40
2884438 heartlandgazebos.com 3 No Rank 2011-09-29 06:32:43
2884439 patrick-webster.com 0 No Rank 2011-09-29 06:32:44
2884440 patrickgibbs.com 2 No Rank 2011-09-29 06:32:44
2884441 patplasting.fi 1 No Rank 2011-09-29 06:32:49
2884442 patriceabrogoua.com 0 No Rank 2011-09-29 06:32:50
2884443 tennisclub.makersofmemories.org 0 3271505 2011-09-29 06:33:01
2884444 patmcdermott.net 2 No Rank 2011-09-29 06:33:15
2884445 patimi.myforum.ro 2 103684 2011-09-29 06:33:17
2884446 patchworkchicks.com 1 No Rank 2011-09-29 06:33:23
2884447 patclaytondesign.com 0 No Rank 2011-09-29 06:33:23
2884448 fineartimagesphotography.net 1 24207229 2011-09-29 06:33:37
2884449 vbautoparts.com 1 19764076 2011-09-29 06:33:47
2884450 wsjr.makersofmemories.org 0 3271505 2011-09-29 06:33:50
2884451 teeniepaws.com 0 833822 2011-09-29 06:33:52
2884452 losangelesdumpsterrental.net 1 No Rank 2011-09-29 06:34:14
2884453 ottawafun.ca 3 No Rank 2011-09-29 06:34:31
2884454 job7.uppsen.com 0 14235498 2011-09-29 06:34:46
2884455 jostenclassicrings1.wordpress.com 0 No Rank 2011-09-29 06:34:46
2884456 viagracheapprescription.com 0 5166813 2011-09-29 06:34:52
2884457 medrest.com 0 No Rank 2011-09-29 06:35:20
2884458 weather.news.makersofmemories.org 0 3271505 2011-09-29 06:35:44
2884459 transmuto.com 3 No Rank 2011-09-29 06:35:51
2884460 tennisclub.web-impact.nl 0 1946967 2011-09-29 06:35:54
2884461 agromachines.pl 2 10250092 2011-09-29 06:35:55
2884462 aiesecpitesti.ro 6 3793844 2011-09-29 06:35:57
2884463 abestvalueinprovidenceri.com 0 22802249 2011-09-29 06:36:01
2884464 alpin-aktuell.at 4 No Rank 2011-09-29 06:36:04
2884465 hiltonheadislandfishing.net 1 23120286 2011-09-29 06:36:08
2884466 bluechipsolarandwind.com 3 25183656 2011-09-29 06:36:09
2884467 buchnet.com 3 8708022 2011-09-29 06:36:11
2884468 bucklandsecurity.net 1 No Rank 2011-09-29 06:36:12
2884469 cantecsystems.com 3 13577716 2011-09-29 06:36:16
2884470 chsd.org 6 No Rank 2011-09-29 06:36:16
2884471 fundraising-products.net 0 11115530 2011-09-29 06:36:21
2884472 dragonfireworks.makersofmemories.org 0 3271505 2011-09-29 06:36:21
2884473 citata.com.ua 3 No Rank 2011-09-29 06:36:23
2884474 article.makersofmemories.org 0 3271505 2011-09-29 06:36:23
2884475 actor.makersofmemories.org 0 3271505 2011-09-29 06:36:28
2884476 dradiwaberl.at 4 11154392 2011-09-29 06:36:29
2884477 donauland.at 5 1436930 2011-09-29 06:36:29
2884478 suedwind-noesued.at 4 25044819 2011-09-29 06:36:45
2884479 alfo.goldzoneweb.info 0 233279 2011-09-29 06:36:48
2884480 wsjr.web-impact.nl 0 1946967 2011-09-29 06:36:49
2884481 bogun119.co.kr 0 No Rank 2011-09-29 06:36:52
2884482 suedwind-magazin.at 5 2775471 2011-09-29 06:36:53
2884483 suedwind-buchwelt.at 5 19112659 2011-09-29 06:36:54
2884484 rrkk.net 0 No Rank 2011-09-29 06:36:54
2884485 stampalternativa.it 5 1175796 2011-09-29 06:37:11
2884486 sexpicsbdsm.com 4 9051330 2011-09-29 06:37:12
2884487 sexpics-online.de 0 No Rank 2011-09-29 06:37:17
2884488 rubbertreestamps.com 1 No Rank 2011-09-29 06:37:22
2884489 scuolaer.it 6 675518 2011-09-29 06:37:22
2884490 prestigecarhoods.com 2 No Rank 2011-09-29 06:37:25
2884491 sulfosalicylicacid.com 0 No Rank 2011-09-29 06:37:30
2884492 rubbermonger.com 2 15508497 2011-09-29 06:37:31
2884493 rosevalleystamps.com 1 No Rank 2011-09-29 06:37:32
2884494 vijaysingh.net 2 No Rank 2011-09-29 06:37:35
2884495 directaction4.info 0 No Rank 2011-09-29 06:37:36
2884496 craftinireland.wordpress.com 0 17840716 2011-09-29 06:37:37
2884497 730fightgear.com 0 No Rank 2011-09-29 06:37:47
2884498 maps.makersofmemories.org 0 3271505 2011-09-29 06:37:47
2884499 mountrubbermore.com 2 No Rank 2011-09-29 06:37:52
2884500 go2.makersofmemories.org 0 3271505 2011-09-29 06:37:56
2884501 vivamejorya.com 0 No Rank 2011-09-29 06:37:59
2884502 fairtrade.at 7 1579817 2011-09-29 06:38:04
2884503 justplan.net 4 7008140 2011-09-29 06:38:07
2884504 inwestprojekt.com.pl 2 11360442 2011-09-29 06:38:13
2884505 hermawan-desainweb.blogspot.com 0 No Rank 2011-09-29 06:38:13
2884506 inwestserbia.com 5 13820550 2011-09-29 06:38:14
2884507 inwestportal.pl 2 3878219 2011-09-29 06:38:18
2884508 pastormurphyblog.com 2 No Rank 2011-09-29 06:38:24
2884509 vinayindustries.50megs.com 2 25913 2011-09-29 06:38:32
2884510 passive-earnings.net 3 5591671 2011-09-29 06:38:33
2884511 pasiekatkaczuk.pl 0 No Rank 2011-09-29 06:38:35
2884512 weather.news.web-impact.nl 0 1946967 2011-09-29 06:38:39
2884513 parquet-huile.com 1 24731247 2011-09-29 06:38:40
2884514 youngamateurs.ws 1 582035 2011-09-29 06:38:41
2884515 parkwest-bone.com 4 6178315 2011-09-29 06:38:45
2884516 parkwaypresbyterian.org 2 No Rank 2011-09-29 06:38:49
2884517 parknearuf.com 0 No Rank 2011-09-29 06:38:53
2884518 parkety-servis.cz 1 No Rank 2011-09-29 06:38:53
2884519 parkcitytitleco.com 3 No Rank 2011-09-29 06:38:56
2884520 parentsatwitsend.com 2 22460842 2011-09-29 06:39:03
2884521 parclub.ru 1 No Rank 2011-09-29 06:39:05
2884522 souptar.info 0 No Rank 2011-09-29 06:39:06
2884523 avanosballoons.com 0 No Rank 2011-09-29 06:39:08
2884524 pappasranch.com 2 9273520 2011-09-29 06:39:10
2884525 paradisecaviary.pl 0 No Rank 2011-09-29 06:39:15
2884526 pappascafe.com 1 No Rank 2011-09-29 06:39:16
2884527 dragonfireworks.web-impact.nl 0 1946967 2011-09-29 06:39:20
2884528 panna-n.myspot.pl 0 1147624 2011-09-29 06:39:21
2884529 article.web-impact.nl 0 1946967 2011-09-29 06:39:23
2884530 rexmoses610.insanejournal.com 0 5024 2011-09-29 06:39:24
2884531 actor.web-impact.nl 0 1946967 2011-09-29 06:39:27
2884532 panjust.pl 2 5786281 2011-09-29 06:39:28
2884533 pandoralog.com 0 No Rank 2011-09-29 06:39:31
2884534 panamavanhalentribute.com 2 No Rank 2011-09-29 06:39:33
2884535 pameladarvirris.com 0 No Rank 2011-09-29 06:39:39
2884536 batman-comics.com 1 22550689 2011-09-29 06:39:40
2884537 paloverdehome.com 0 No Rank 2011-09-29 06:39:40
2884538 sumatracoffees.com 0 25420222 2011-09-29 06:39:41
2884539 fishjudyv.com 4 15744120 2011-09-29 06:39:43
2884540 palousepatchers.org 2 No Rank 2011-09-29 06:39:45
2884541 palmsonwestmain.com 1 No Rank 2011-09-29 06:39:49
2884542 palmshields.org 0 24321677 2011-09-29 06:39:51
2884543 photos.justsewyouknow.com 0 26233135 2011-09-29 06:39:52
2884544 palmerlogistics.com 3 22992026 2011-09-29 06:39:54
2884545 wlgriffin.com 2 14024078 2011-09-29 06:39:57
2884546 palma657.w.interia.pl 0 710 2011-09-29 06:39:58
2884547 leadershipforattorneys.org 1 15512700 2011-09-29 06:40:01
2884548 palaikastro.gr 4 No Rank 2011-09-29 06:40:02
2884549 sjbparishhistory.org 0 No Rank 2011-09-29 06:40:02
2884550 palace-lighting.com 1 7665097 2011-09-29 06:40:07
2884551 paintingsandstatues.com 0 No Rank 2011-09-29 06:40:08
2884552 pagodasuites.com 4 9703324 2011-09-29 06:40:11
2884553 pagetbaker.com 3 5647176 2011-09-29 06:40:12
2884554 rockybaycruisingclub.co.nz 1 No Rank 2011-09-29 06:40:17
2884555 paffos.com 2 No Rank 2011-09-29 06:40:19
2884556 paddingtonbearperu.com 0 No Rank 2011-09-29 06:40:20
2884557 padalec007.fm.interia.pl 0 710 2011-09-29 06:40:23
2884558 pacpowerafc.com 0 No Rank 2011-09-29 06:40:32
2884559 pac4.net 0 No Rank 2011-09-29 06:40:36
2884560 sadiandreas.com 0 21439673 2011-09-29 06:40:40
2884561 pabineaufirstnation.ca 4 13449151 2011-09-29 06:40:41
2884562 maps.web-impact.nl 0 1946967 2011-09-29 06:40:42
2884563 pa-tkd.com 0 21118491 2011-09-29 06:40:44
2884564 oys.ca 1 12869735 2011-09-29 06:40:48
2884565 pacificgeneration.com 1 9851104 2011-09-29 06:40:50
2884566 21stcentury.uppsen.com 0 14235498 2011-09-29 06:40:53
2884567 oxnard-webdesign.com 0 No Rank 2011-09-29 06:40:54
2884568 cb.reviews-free-downloads.com 0 5814888 2011-09-29 06:40:55
2884569 go2.web-impact.nl 0 1946967 2011-09-29 06:40:58
2884570 overbrookconstructioninc.com 0 No Rank 2011-09-29 06:40:59
2884571 overseas-operations.com 1 No Rank 2011-09-29 06:41:00
2884572 outdooragent.com 0 27579172 2011-09-29 06:41:05
2884573 outsideandinside.net 3 No Rank 2011-09-29 06:41:07
2884574 outcastwatersports.com 2 6070206 2011-09-29 06:41:08
2884575 otysonphoto.com 1 No Rank 2011-09-29 06:41:14
2884576 yourgreatabs.com 1 7114686 2011-09-29 06:41:18
2884577 otpugivateli.ru 2 3673535 2011-09-29 06:41:20
2884578 victorantonio.com 3 1518793 2011-09-29 06:41:21
2884579 otoplastiacosto.com 0 17094572 2011-09-29 06:41:22
2884580 otbthailand.com 0 No Rank 2011-09-29 06:41:26
2884581 otok-iz-apartmani-knez.hr 0 No Rank 2011-09-29 06:41:26
2884582 osteriasomare.com 2 No Rank 2011-09-29 06:41:30
2884583 ostelliistambul.com 2 No Rank 2011-09-29 06:41:35
2884584 baito.makersofmemories.org 0 3271505 2011-09-29 06:41:35
2884585 irk.dk 0 No Rank 2011-09-29 06:41:37
2884586 ospchroscin.fm.interia.pl 0 710 2011-09-29 06:41:41
2884587 osmbrozovic.hr 6 22800301 2011-09-29 06:41:43
2884588 oshkoshcyclery.com 3 10758130 2011-09-29 06:41:44
2884589 os-sestanovac.hr 3 No Rank 2011-09-29 06:41:48
2884590 shanecompany.wordpress.com 0 No Rank 2011-09-29 06:41:55
2884591 orsetech.com 0 No Rank 2011-09-29 06:41:57
2884592 fresh-creativity.com 0 No Rank 2011-09-29 06:41:57
2884593 orionwebware.com 4 27350419 2011-09-29 06:42:00
2884594 orracledesign.net 1 No Rank 2011-09-29 06:42:00
2884595 156619550.blog.sohu.com 0 44 2011-09-29 06:42:02
2884596 ealingtimes.co.uk 4 1226096 2011-09-29 06:42:03
2884597 petersonfilters.com 3 17415892 2011-09-29 06:42:06
2884598 organizedmother.com 1 16699482 2011-09-29 06:42:08
2884599 organizingconceptsanddesigns.com 1 No Rank 2011-09-29 06:42:09
2884600 orderfirst.com 0 7649019 2011-09-29 06:42:17
2884601 orderbynumberhandyman.com 1 No Rank 2011-09-29 06:42:18
2884602 orchardgrass.org 3 No Rank 2011-09-29 06:42:24
2884603 orden.ws 3 No Rank 2011-09-29 06:42:29
2884604 orcaretirement.com 5 2466311 2011-09-29 06:42:29
2884605 castroroofinginc.com 0 No Rank 2011-09-29 06:42:32
2884606 orange-tail.nl 0 No Rank 2011-09-29 06:42:34
2884607 oraisiandien.lt 2 22296841 2011-09-29 06:42:36
2884608 oraclelaw.org 0 No Rank 2011-09-29 06:42:40
2884609 opticyber.com 0 No Rank 2011-09-29 06:42:44
2884610 optimisation.net 3 No Rank 2011-09-29 06:42:48
2884611 opticalkeyhole.com 4 5001273 2011-09-29 06:42:48
2884612 hnhconsultancy.com 0 No Rank 2011-09-29 06:42:53
2884613 opportunity-magazine.com 0 No Rank 2011-09-29 06:42:54
2884614 operasanger.dk 0 No Rank 2011-09-29 06:42:58
2884615 opicng.com 0 No Rank 2011-09-29 06:42:59
2884616 openhousepa.org 2 7115761 2011-09-29 06:43:03
2884617 openairllc.com 0 15403083 2011-09-29 06:43:04
2884618 open-eshop.cz 0 10217848 2011-09-29 06:43:11
2884619 reviveherdrivereview.mcgeetimes.com 0 5635862 2011-09-29 06:43:11
2884620 opalmyth.com 1 No Rank 2011-09-29 06:43:11
2884621 ooh-lalacatering.com 1 No Rank 2011-09-29 06:43:14
2884622 abcsofabstinence.com 0 No Rank 2011-09-29 06:43:15
2884623 ontariodoberescue.ca 1 18837875 2011-09-29 06:43:16
2884624 paulsmarbleandtile.com 1 No Rank 2011-09-29 06:43:18
2884625 onmug.com 0 No Rank 2011-09-29 06:43:25
2884626 onlinesport.se 2 21368681 2011-09-29 06:43:27
2884627 onlinelawschoolreview.com 0 No Rank 2011-09-29 06:43:34
2884628 onlinegame-rank.com 2 No Rank 2011-09-29 06:43:39
2884629 blog.makersofmemories.org 1 3271505 2011-09-29 06:43:42
2884630 onlineconto.com 2 No Rank 2011-09-29 06:43:43
2884631 onlinearsenal.com 3 652870 2011-09-29 06:43:46
2884632 online-geld-verdienen-im-internet.de 2 2864633 2011-09-29 06:43:50
2884633 online-business-tools.net 0 No Rank 2011-09-29 06:43:52
2884634 onixgroup.com 4 No Rank 2011-09-29 06:43:54
2884635 onikuya.com 0 No Rank 2011-09-29 06:43:59
2884636 onfaithonline.tv 2 7401054 2011-09-29 06:44:03
2884637 onesystem.com 1 No Rank 2011-09-29 06:44:07
2884638 rmrnederland.nl 1 No Rank 2011-09-29 06:44:10
2884639 onelasallepampanga.org 0 28003291 2011-09-29 06:44:12
2884640 rexmoses610.xanga.com 0 2752 2011-09-29 06:44:12
2884641 store1.uppsen.com 0 14235498 2011-09-29 06:44:12
2884642 oneillforjudge.com 2 No Rank 2011-09-29 06:44:18
2884643 oneildental.com 1 No Rank 2011-09-29 06:44:25
2884644 144letters.com 0 4885081 2011-09-29 06:44:28
2884645 onecallconstructionllc.com 0 No Rank 2011-09-29 06:44:29
2884646 ikwilkunnenafvallen.tk 0 No Rank 2011-09-29 06:44:29
2884647 ondemanddistribution.com 4 No Rank 2011-09-29 06:44:33
2884648 cavmen.home.uppsen.com 0 14235498 2011-09-29 06:44:34
2884649 oncourology.ru 2 3868406 2011-09-29 06:44:41
2884650 onestopaccess.com 1 11432919 2011-09-29 06:44:42
2884651 www2.makersofmemories.org 0 3271505 2011-09-29 06:44:44
2884652 onceoverfarm.com 0 No Rank 2011-09-29 06:44:45
2884653 legalforest.com 0 No Rank 2011-09-29 06:44:50
2884654 once11.com 0 20262237 2011-09-29 06:44:51
2884655 oncb.vanmix.com.br 3 19684344 2011-09-29 06:44:51
2884656 baito.web-impact.nl 0 1946967 2011-09-29 06:44:53
2884657 on-site2u.com 0 No Rank 2011-09-29 06:44:55
2884658 oncallmicro.com 2 No Rank 2011-09-29 06:44:56
2884659 omicslabs.com 0 No Rank 2011-09-29 06:45:00
2884660 omsarchitects.com 0 No Rank 2011-09-29 06:45:00
2884661 omerlift.es 3 No Rank 2011-09-29 06:45:09
2884662 omgsmokefree.com 0 18704510 2011-09-29 06:45:10
2884663 bambourestaurant.com 2 5957452 2011-09-29 06:45:13
2884664 omega-gourmet.com 0 No Rank 2011-09-29 06:45:13
2884665 olyortholab.com 0 19153639 2011-09-29 06:45:14
2884666 martincharities.org 3 No Rank 2011-09-29 06:45:17
2884667 olszewski.net.pl 2 No Rank 2011-09-29 06:45:19
2884668 olymps-door.hu 3 11425691 2011-09-29 06:45:21
2884669 olpinhoopes.com 3 8389221 2011-09-29 06:45:23
2884670 olonec.ru 1 No Rank 2011-09-29 06:45:27
2884671 oliveiracpas.com 0 No Rank 2011-09-29 06:45:32
2884672 oliphaunt.de 3 No Rank 2011-09-29 06:45:35
2884673 olimpiasplendid.fr 3 2075661 2011-09-29 06:45:37
2884674 oldsmobilejunkies.ca 0 No Rank 2011-09-29 06:45:43
2884675 olecomedy.com 3 No Rank 2011-09-29 06:45:44
2884676 blog.quadri-di-sabbia.it 0 No Rank 2011-09-29 06:45:47
2884677 oldenbourg-industrieverlag.de 5 1815991 2011-09-29 06:45:49
2884678 oldnavycouponcode.org 0 No Rank 2011-09-29 06:45:50
2884679 oldemillcatering.com 1 7159599 2011-09-29 06:45:52
2884680 oldeats.com 0 9576140 2011-09-29 06:45:55
2884681 trevorsphotos.co.uk 0 No Rank 2011-09-29 06:45:55
2884682 oldcorner.net 1 No Rank 2011-09-29 06:45:59
2884683 olay11.com 1 6176506 2011-09-29 06:46:03
2884684 okdf-durlach.de 1 No Rank 2011-09-29 06:46:08
2884685 okcdoubledeckerpartybus.com 0 No Rank 2011-09-29 06:46:12
2884686 capitalfordofwilmington.com 2 No Rank 2011-09-29 06:46:12
2884687 oistrakh.com 4 No Rank 2011-09-29 06:46:17
2884688 ohmsysinc.com 2 9918993 2011-09-29 06:46:18
2884689 ohiolampandfixture.com 0 No Rank 2011-09-29 06:46:22
2884690 spb.makersofmemories.org 0 3271505 2011-09-29 06:46:27
2884691 oguraseikotsu.com 1 No Rank 2011-09-29 06:46:28
2884692 offtheroadtires.org 0 No Rank 2011-09-29 06:46:34
2884693 boroughwestmifflin.com 3 No Rank 2011-09-29 06:46:36
2884694 offshoreservicestolawyers.com 2 No Rank 2011-09-29 06:46:37
2884695 officialsomaligov.com 0 No Rank 2011-09-29 06:46:41
2884696 rexmoses610528.webs.com 0 No Rank 2011-09-29 06:46:45
2884697 officialryan.com 0 No Rank 2011-09-29 06:46:45
2884698 officesyndrome.com 0 12478061 2011-09-29 06:46:46
2884699 balham.london.myvillage.com 1 247115 2011-09-29 06:46:48
2884700 offersclub.net 0 18861194 2011-09-29 06:46:50
2884701 oeveringhomes.com 3 No Rank 2011-09-29 06:46:52
2884702 buysellcockpit.blogspot.com 0 No Rank 2011-09-29 06:46:55
2884703 sweetlovesite.com 0 1259840 2011-09-29 06:46:56
2884704 oepcouplings.com 2 14632596 2011-09-29 06:46:56
2884705 odeson-light.com 3 No Rank 2011-09-29 06:46:57
2884706 thesolarbiz.com 3 1891877 2011-09-29 06:47:01
2884707 blog.web-impact.nl 0 1946967 2011-09-29 06:47:02
2884708 oceansidechamberblog.com 3 4682053 2011-09-29 06:47:09
2884709 oceanmiststore.com 4 24320853 2011-09-29 06:47:13
2884710 oceansidecarealestates.com 1 No Rank 2011-09-29 06:47:13
2884711 oceanflyers.com 0 No Rank 2011-09-29 06:47:21
2884712 oceanlinersofthepast.com 0 No Rank 2011-09-29 06:47:22
2884713 oceanexotics.com 1 No Rank 2011-09-29 06:47:26
2884714 northstargroupinc.net 1 23630264 2011-09-29 06:47:27
2884715 occreativecustomcakes.com 0 2885193 2011-09-29 06:47:31
2884716 go2.uppsen.com 0 14235498 2011-09-29 06:47:35
2884717 obr-komp.ru 2 6795565 2011-09-29 06:47:37
2884718 obogreevo.ru 2 12860942 2011-09-29 06:47:39
2884719 group.makersofmemories.org 0 3271505 2011-09-29 06:47:42
2884720 obgynholland.com 0 No Rank 2011-09-29 06:47:43
2884721 objet-ethnique.com 1 9235503 2011-09-29 06:47:45
2884722 oberteile.com 0 No Rank 2011-09-29 06:47:48
2884723 oaktonmontessori.com 1 No Rank 2011-09-29 06:47:51
2884724 toronto.en.gastroenterologyliverandnutritionpdiatrics.wordpress.com 0 No Rank 2011-09-29 06:47:53
2884725 oakcreekbmx.org 3 No Rank 2011-09-29 06:48:01
2884726 takarakuji.makersofmemories.org 0 3271505 2011-09-29 06:48:02
2884727 nycdieselseeds.com 0 17931662 2011-09-29 06:48:03
2884728 nxvoice.com 1 12906203 2011-09-29 06:48:07
2884729 findmeastudy.com 1 No Rank 2011-09-29 06:48:07
2884730 gzxxhg88.qjy168.com 6 3229 2011-09-29 06:48:08
2884731 nwpilot.com 0 No Rank 2011-09-29 06:48:10
2884732 nwoba.org 0 No Rank 2011-09-29 06:48:11
2884733 nwelitespas.com 0 No Rank 2011-09-29 06:48:17
2884734 www2.web-impact.nl 0 1946967 2011-09-29 06:48:18
2884735 nvyb.org 0 No Rank 2011-09-29 06:48:24
2884736 nusantararaya.org 0 No Rank 2011-09-29 06:48:28
2884737 nvbfitness.com 0 No Rank 2011-09-29 06:48:30
2884738 nurigyn.com 0 No Rank 2011-09-29 06:48:31
2884739 nucelle.com 4 5361836 2011-09-29 06:48:36
2884740 nufeng.tw 1 4679981 2011-09-29 06:48:37
2884741 nuancestudios.net 0 No Rank 2011-09-29 06:48:40
2884742 nsbeachhouse.com 3 No Rank 2011-09-29 06:48:45
2884743 ntepe.com.tr 2 9354596 2011-09-29 06:48:47
2884744 whowhere.makersofmemories.org 0 3271505 2011-09-29 06:48:51
2884745 npfgefest.ru 2 11732262 2011-09-29 06:48:52
2884746 douglasblane.wordpress.com 3 18445413 2011-09-29 06:48:55
2884747 npd-luebeck.de 2 No Rank 2011-09-29 06:48:56
2884748 npbheights.com 1 No Rank 2011-09-29 06:48:57
2884749 npa21.ru 3 1614103 2011-09-29 06:49:06
2884750 novosalon.ru 0 12644180 2011-09-29 06:49:08
2884751 novis.net.pl 1 No Rank 2011-09-29 06:49:11
2884752 novi.lv 2 21223230 2011-09-29 06:49:13
2884753 notecolon.info 3 24282211 2011-09-29 06:49:15
2884754 notdippler.com 2 No Rank 2011-09-29 06:49:18
2884755 notario.cr 0 10485457 2011-09-29 06:49:23
2884756 counter-strikesource.darkbb.com 2 17315 2011-09-29 06:49:26
2884757 notariusze.opole.firmy-24h.pl 0 3548682 2011-09-29 06:49:27
2884758 angelinatvniclu.insanejournal.com 0 5024 2011-09-29 06:49:31
2884759 comdatatechnologies.com 0 18856985 2011-09-29 06:49:33
2884760 nosunblock.com 1 24083554 2011-09-29 06:49:34
2884761 nostreak.com 0 22892656 2011-09-29 06:49:35
2884762 spitfirecoaters.com 1 No Rank 2011-09-29 06:49:37
2884763 northwesthiphop.com 1 No Rank 2011-09-29 06:49:41
2884764 northtexastaxidermy.com 0 20409848 2011-09-29 06:49:43
2884765 michaelbcreation.com 1 4244688 2011-09-29 06:49:44
2884766 northoaklandsports.com 3 2629144 2011-09-29 06:49:47
2884767 bhstrackfield.com 0 No Rank 2011-09-29 06:49:50
2884768 northlandglobal.com 1 20501152 2011-09-29 06:49:50
2884769 northland-international.com 0 No Rank 2011-09-29 06:49:54
2884770 northlakemusic.org 0 No Rank 2011-09-29 06:49:56
2884771 spb.web-impact.nl 0 1946967 2011-09-29 06:49:56
2884772 northidahoseniorgames.org 3 No Rank 2011-09-29 06:49:58
2884773 northharfordsoccer.com 1 No Rank 2011-09-29 06:50:00
2884774 problemandsolutions.blogspot.com 1 28219608 2011-09-29 06:50:01
2884775 northeastvelo.com 3 11730316 2011-09-29 06:50:03
2884776 myworldhyundai.com 2 2914720 2011-09-29 06:50:04
2884777 northeastbc.org 1 No Rank 2011-09-29 06:50:06
2884778 intimatedeception.dealshopcenter.com 0 No Rank 2011-09-29 06:50:06
2884779 northbrookmarketplace.com 2 No Rank 2011-09-29 06:50:09
2884780 northeast71.com 0 14153121 2011-09-29 06:50:12
2884781 northandoverchiro.com 0 No Rank 2011-09-29 06:50:14
2884782 illustratorsbydesign.com 0 No Rank 2011-09-29 06:50:15
2884783 noonespecial.ca 2 No Rank 2011-09-29 06:50:25
2884784 noodieslegendsball.com 1 No Rank 2011-09-29 06:50:26
2884785 nonhodgekinslymphoma.com 0 No Rank 2011-09-29 06:50:31
2884786 nokitishop.jp 1 1987162 2011-09-29 06:50:32
2884787 e-t-shirts.com 2 No Rank 2011-09-29 06:50:36
2884788 nojokaroca.com 2 No Rank 2011-09-29 06:50:36
2884789 nokian8.dk 2 8335456 2011-09-29 06:50:44
2884790 home.makersofmemories.org 0 3271505 2011-09-29 06:50:47
2884791 noeliemcdonnell.com 3 24394097 2011-09-29 06:50:48
2884792 researchwins.com 0 No Rank 2011-09-29 06:50:49
2884793 mightylib.makersofmemories.org 0 3271505 2011-09-29 06:50:52
2884794 nodash.com 0 No Rank 2011-09-29 06:50:54
2884795 nobleelectricals.com 0 7922811 2011-09-29 06:51:00
2884796 ariannatvporter.bravejournal.com 0 13316 2011-09-29 06:51:01
2884797 noblebaroque.com 1 No Rank 2011-09-29 06:51:06
2884798 vanbraxton.org 2 No Rank 2011-09-29 06:51:10
2884799 noahsnanny.com 0 No Rank 2011-09-29 06:51:10
2884800 johannesburg.makersofmemories.org 0 3271505 2011-09-29 06:51:12
2884801 nmh.com 4 27402422 2011-09-29 06:51:15
2884802 nltccharliereed.com 0 15708739 2011-09-29 06:51:20
2884803 jamiecarroll611.livejournal.com 0 87 2011-09-29 06:51:21
2884804 the-test-area.co.uk 0 No Rank 2011-09-29 06:51:23
2884805 group.web-impact.nl 0 1946967 2011-09-29 06:51:24
2884806 nohands.aggressivenation.pl 2 No Rank 2011-09-29 06:51:25
2884807 nissimyachts.com 3 No Rank 2011-09-29 06:51:26
2884808 ashleexqwells.sosblogs.com 0 12591 2011-09-29 06:51:29
2884809 niphalsan.se 1 No Rank 2011-09-29 06:51:29
2884810 fapremiership.net 0 No Rank 2011-09-29 06:51:31
2884811 ningyo-daito.jp 2 No Rank 2011-09-29 06:51:35
2884812 ninjawebservices.com 1 No Rank 2011-09-29 06:51:35
2884813 liarsforjesus.com 5 3562923 2011-09-29 06:51:36
2884814 ninakordon.ee 4 No Rank 2011-09-29 06:51:41
2884815 ningxiawolfberrygoji.com 0 No Rank 2011-09-29 06:51:42
2884816 northcarolinaenespanol.com 0 No Rank 2011-09-29 06:51:43
2884817 ninadspottery.com 0 No Rank 2011-09-29 06:51:45
2884818 takarakuji.web-impact.nl 0 1946967 2011-09-29 06:51:46
2884819 nilssonmotorsports.com 2 No Rank 2011-09-29 06:51:50
2884820 sprucepoint.org 3 No Rank 2011-09-29 06:51:50
2884821 ninabkrebs.com 0 No Rank 2011-09-29 06:51:51
2884822 nikebyeminem.com 0 No Rank 2011-09-29 06:51:55
2884823 nikejordansale.com 0 8920627 2011-09-29 06:51:57
2884824 nightview.se 3 9514249 2011-09-29 06:52:00
2884825 nighttoremembertickets.com 0 No Rank 2011-09-29 06:52:04
2884826 nigamushi.net 0 771594 2011-09-29 06:52:07
2884827 ashleevgwells.sweetcircles.com 0 23512 2011-09-29 06:52:09
2884828 dayi-archi.myweb.makersofmemories.org 0 3271505 2011-09-29 06:52:11
2884829 nielhiggins.co.za 1 18636006 2011-09-29 06:52:11
2884830 nidhiplacements.org 1 12275314 2011-09-29 06:52:12
2884831 nidhiplacements.com 1 20997188 2011-09-29 06:52:15
2884832 draycor.com 0 No Rank 2011-09-29 06:52:15
2884833 nicoholdings.com 3 No Rank 2011-09-29 06:52:20
2884834 nicole-michael.be 0 No Rank 2011-09-29 06:52:21
2884835 nicksplazacafe.com 0 No Rank 2011-09-29 06:52:24
2884836 actiondisposal2.com 0 No Rank 2011-09-29 06:52:24
2884837 nicksnortheast.com 2 9697934 2011-09-29 06:52:25
2884838 nickslimousine.com 1 No Rank 2011-09-29 06:52:28
2884839 whowhere.web-impact.nl 0 1946967 2011-09-29 06:52:31
2884840 niceahotel.com 3 9990858 2011-09-29 06:52:32
2884841 niagaracyclomassage.com 1 No Rank 2011-09-29 06:52:35
2884842 niacinb3.com 3 8810063 2011-09-29 06:52:36
2884843 sisirakumara.com 0 21664395 2011-09-29 06:52:37
2884844 greatrissingtonschool.co.uk 2 No Rank 2011-09-29 06:52:37
2884845 fmcbc.org 1 No Rank 2011-09-29 06:52:38
2884846 nh-lilygarden.com 0 No Rank 2011-09-29 06:52:40
2884847 nh-intl.com 0 No Rank 2011-09-29 06:52:43
2884848 www4.makersofmemories.org 0 3271505 2011-09-29 06:52:45
2884849 nfdouglas.com 3 No Rank 2011-09-29 06:52:46
2884850 nextwork.us 1 No Rank 2011-09-29 06:52:53
2884851 nextdaypaydayloans.net 0 22590057 2011-09-29 06:52:55
2884852 nexiomania.pl 3 5744230 2011-09-29 06:52:56
2884853 adelgazar_facil.livejournal.com 0 87 2011-09-29 06:53:00
2884854 yu-hu.com 4 332459 2011-09-29 06:53:01
2884855 newyoucoaching.com 0 No Rank 2011-09-29 06:53:01
2884856 nexgtv.com 4 4471737 2011-09-29 06:53:04
2884857 newworldshipping.com 3 15007704 2011-09-29 06:53:05
2884858 jevme.com 2 No Rank 2011-09-29 06:53:07
2884859 newstylecabinets.com 1 No Rank 2011-09-29 06:53:11
2884860 newswatchtv.com 2 13628686 2011-09-29 06:53:13
2884861 newsonggospel.com 0 No Rank 2011-09-29 06:53:17
2884862 newssentinel.com 6 12174424 2011-09-29 06:53:18
2884863 usabg.net 0 1078728 2011-09-29 06:53:20
2884864 saintcloudrealestate.com 2 14743273 2011-09-29 06:53:33
2884865 newseedadvisors.com 5 12005575 2011-09-29 06:53:33
2884866 alltexpestcontrol.com 0 No Rank 2011-09-29 06:53:35
2884867 newparadimeinvest.com 0 No Rank 2011-09-29 06:53:36
2884868 mikes3d.com 2 3815423 2011-09-29 06:53:37
2884869 jamiecarroll611.insanejournal.com 0 5024 2011-09-29 06:53:41
2884870 dir.makersofmemories.org 0 3271505 2011-09-29 06:53:42
2884871 newmansuk.com 0 No Rank 2011-09-29 06:53:46
2884872 newskosovo.tk 3 No Rank 2011-09-29 06:53:50
2884873 newliberia.com.lr 2 No Rank 2011-09-29 06:53:52
2884874 newenglandpoolbuilders.com 0 No Rank 2011-09-29 06:53:55
2884875 newillinoisadoptionlaw.com 3 21981616 2011-09-29 06:53:56
2884876 newday.devkyxxx.cz 0 2572961 2011-09-29 06:54:01
2884877 newcontemporaryart.com 2 11786110 2011-09-29 06:54:02
2884878 home.web-impact.nl 0 1946967 2011-09-29 06:54:04
2884879 newbridge-consulting.com 0 No Rank 2011-09-29 06:54:08
2884880 mightylib.web-impact.nl 0 1946967 2011-09-29 06:54:11
2884881 4327.cn 0 No Rank 2011-09-29 06:54:15
2884882 eoiv.net 0 No Rank 2011-09-29 06:54:16
2884883 newbody-fitness.eu 0 No Rank 2011-09-29 06:54:17
2884884 newbaric.com 2 13523088 2011-09-29 06:54:18
2884885 slomo.at 0 No Rank 2011-09-29 06:54:22
2884886 nevadacountyengineers.org 0 No Rank 2011-09-29 06:54:22
2884887 allyssaxqporqw.blogdrive.com 0 8422 2011-09-29 06:54:22
2884888 newagedanceco.com 0 No Rank 2011-09-29 06:54:23
2884889 netlaws.us 3 6539349 2011-09-29 06:54:27
2884890 rockthislife.com 1 No Rank 2011-09-29 06:54:27
2884891 nettegaastra.com 2 15422615 2011-09-29 06:54:30
2884892 johannesburg.web-impact.nl 0 1946967 2011-09-29 06:54:30
2884893 spix.com 0 5651289 2011-09-29 06:54:31
2884894 friendstofriendsconsignment.com 0 No Rank 2011-09-29 06:54:32
2884895 me35.com 1 No Rank 2011-09-29 06:54:32
2884896 netcustomer.com 4 10267362 2011-09-29 06:54:32
2884897 dbssecurity.com 3 No Rank 2011-09-29 06:54:34
2884898 stgec.com 2 No Rank 2011-09-29 06:54:36
2884899 nesf.us 1 19906050 2011-09-29 06:54:39
2884900 redgol.cl 4 108140 2011-09-29 06:54:41
2884901 netbizm.com 2 6212614 2011-09-29 06:54:42
2884902 nephtia.com 0 21742004 2011-09-29 06:54:43
2884903 neovod.com 1 854639 2011-09-29 06:54:46
2884904 nelsonlubetech.com 0 No Rank 2011-09-29 06:54:51
2884905 nelsonalgren.org 4 No Rank 2011-09-29 06:54:51
2884906 neinspection.com 1 No Rank 2011-09-29 06:54:55
2884907 neilbreen.com 2 No Rank 2011-09-29 06:54:56
2884908 trustc.com 0 25892878 2011-09-29 06:54:58
2884909 music.makersofmemories.org 0 3271505 2011-09-29 06:55:01
2884910 angelinatvadams.over-blog.com 0 354 2011-09-29 06:55:01
2884911 cn0543.com 0 8599692 2011-09-29 06:55:02
2884912 zjydjy.com 2 No Rank 2011-09-29 06:55:04
2884913 neet-findweb.com 1 8991770 2011-09-29 06:55:09
2884914 qey.zjw.cn 3 571073 2011-09-29 06:55:10
2884915 m.redgol.cl 2 108140 2011-09-29 06:55:11
2884916 neck-cream.com 0 5713672 2011-09-29 06:55:12
2884917 ndjames.com 3 12865230 2011-09-29 06:55:13
2884918 cumcmds.com 1 No Rank 2011-09-29 06:55:16
2884919 ndasecurity.com 0 20189896 2011-09-29 06:55:16
2884920 ncwillsandtrusts.com 3 10194202 2011-09-29 06:55:20
2884921 ashleetvporter.posterous.com 0 No Rank 2011-09-29 06:55:20
2884922 ceatolei.cl 2 3059765 2011-09-29 06:55:20
2884923 hhxx.com.cn 4 155251 2011-09-29 06:55:22
2884924 dayi-archi.myweb.web-impact.nl 0 1946967 2011-09-29 06:55:26
2884925 ncifts.org 3 No Rank 2011-09-29 06:55:26
2884926 qjtv.zjw.cn 0 571073 2011-09-29 06:55:28
2884927 raytekmt6.net 0 No Rank 2011-09-29 06:55:29
2884928 nchs1956.com 0 No Rank 2011-09-29 06:55:29
2884929 max.makersofmemories.org 0 3271505 2011-09-29 06:55:29
2884930 cyclists.jp 4 5715357 2011-09-29 06:55:31
2884931 1071workfm.com 3 19471678 2011-09-29 06:55:38
2884932 naxco.com 3 16380636 2011-09-29 06:55:39
2884933 navajocrafts.net 3 4178701 2011-09-29 06:55:39
2884934 jinfung.com 0 No Rank 2011-09-29 06:55:40
2884935 bbs.emus.cn 3 2069788 2011-09-29 06:55:40
2884936 stampin.net 4 23807785 2011-09-29 06:55:43
2884937 gilroyassistanceleague.org 0 No Rank 2011-09-29 06:55:44
2884938 homepager.tripod.makersofmemories.org 0 3271505 2011-09-29 06:55:46
2884939 nautical.co.nz 2 11230559 2011-09-29 06:55:48
2884940 arztone.com 1 20805870 2011-09-29 06:55:49
2884941 naturaltanningguide.com 0 3828091 2011-09-29 06:55:49
2884942 jamiecarroll611694.webs.com 0 No Rank 2011-09-29 06:55:55
2884943 naturalcare-nc.com 3 4002650 2011-09-29 06:55:56
2884944 nationoftek.com 1 No Rank 2011-09-29 06:55:57
2884945 scott20.com 1 No Rank 2011-09-29 06:55:58
2884946 vision4.tv 0 No Rank 2011-09-29 06:55:58
2884947 shopmun.com 2 1269379 2011-09-29 06:56:01
2884948 www4.web-impact.nl 0 1946967 2011-09-29 06:56:01
2884949 nationalleaguemusic.com 1 No Rank 2011-09-29 06:56:04
2884950 chefdanilo.com 0 No Rank 2011-09-29 06:56:07
2884951 nathanmontini.com 0 No Rank 2011-09-29 06:56:07
2884952 koyao-island-resort.phuketbeachhotels.com 0 No Rank 2011-09-29 06:56:08
2884953 guupost.com 3 2429748 2011-09-29 06:56:12
2884954 cesoul.com 3 22034563 2011-09-29 06:56:13
2884955 cz.inhe.net 5 13167 2011-09-29 06:56:16
2884956 nastawienia.pl 0 No Rank 2011-09-29 06:56:17
2884957 nathankilgore.com 0 No Rank 2011-09-29 06:56:17
2884958 nascarchecks.net 3 17884235 2011-09-29 06:56:21
2884959 nashvilletnhotels.net 0 No Rank 2011-09-29 06:56:22
2884960 smileofme.igetweb.com 0 14710 2011-09-29 06:56:24
2884961 qlsf.zjw.cn 0 571073 2011-09-29 06:56:26
2884962 narutofreak.com 3 6456380 2011-09-29 06:56:27
2884963 naras.puslapiai.lt 1 97898 2011-09-29 06:56:27
2884964 mispress.com 5 6133705 2011-09-29 06:56:30
2884965 nanosonic-soundbar.com 0 No Rank 2011-09-29 06:56:31
2884966 napoli.com.pl 3 844754 2011-09-29 06:56:35
2884967 yibaynet.com 3 No Rank 2011-09-29 06:56:36
2884968 nandeyanen.jp 2 9173730 2011-09-29 06:56:39
2884969 progland.com 3 13600306 2011-09-29 06:56:39
2884970 fsbo-ads.com 2 3724987 2011-09-29 06:56:44
2884971 nancybatchelor.com 3 2853179 2011-09-29 06:56:49
2884972 2002l53.info 0 No Rank 2011-09-29 06:56:51
2884973 cinecaps.com 0 No Rank 2011-09-29 06:56:55
2884974 nanamazingtour.com 3 No Rank 2011-09-29 06:56:55
2884975 namu.puslapiai.lt 1 97898 2011-09-29 06:57:01
2884976 palicon.com 0 No Rank 2011-09-29 06:57:02
2884977 franklinclem49.tumblr.com 0 No Rank 2011-09-29 06:57:06
2884978 nameshoko.com 4 No Rank 2011-09-29 06:57:09
2884979 gamefans.org 3 400262 2011-09-29 06:57:10
2884980 dir.web-impact.nl 0 1946967 2011-09-29 06:57:10
2884981 namebini.com 2 9247270 2011-09-29 06:57:11
2884982 abestvalueinhartfordct.com 0 20711808 2011-09-29 06:57:13
2884983 namarineconsultants.com 0 No Rank 2011-09-29 06:57:13
2884984 einfinit.com 0 No Rank 2011-09-29 06:57:16
2884985 supermayki5447jl.chat.ru 0 24281 2011-09-29 06:57:17
2884986 najlepszecytaty.pl 2 5398545 2011-09-29 06:57:18
2884987 newcaney.net 0 No Rank 2011-09-29 06:57:19
2884988 traceroute.at 1 No Rank 2011-09-29 06:57:20
2884989 nagai-clinic.com 1 No Rank 2011-09-29 06:57:22
2884990 nadya.tel 3 4457334 2011-09-29 06:57:24
2884991 printableflashcards.blogspot.com 0 No Rank 2011-09-29 06:57:24
2884992 thexfactor.gr 6 16646598 2011-09-29 06:57:29
2884993 naduryoungsters.com 2 25356955 2011-09-29 06:57:30
2884994 nadosoccer.com 2 18794591 2011-09-29 06:57:34
2884995 chelseapublishing.com 0 15517420 2011-09-29 06:57:35
2884996 aaalingerie.com 0 18700862 2011-09-29 06:57:35
2884997 nackrosenunderklader.se 1 No Rank 2011-09-29 06:57:36
2884998 chinastic.com 1 11096468 2011-09-29 06:57:39
2884999 naarassudenjuoksu.net 1 No Rank 2011-09-29 06:57:40